,,PA_Meas_PMT16A,,PR_Meas_QMR101_102,,RH_Meas_QMH101,,SR_Meas_QMS101,,TA_Meas_QMH101,,GenWind,,GenWind,
time,status,PA,status,PR,status,RH,status,SR,status,TA,status,DirAvg,status,SpdAvg,
2014-01-10, 07:01:04,VALID,917.438,VALID,0,VALID,97.0994,VALID,42.6541,VALID,19.0608,VALID,55,VALID,0.009375,
2014-01-10, 07:02:04,VALID,917.442,VALID,0,VALID,97.0994,VALID,42.9765,VALID,19.0998,VALID,55,VALID,0,
2014-01-10, 07:03:04,VALID,917.452,VALID,0,VALID,97.0918,VALID,44.1583,VALID,19.1207,VALID,55,VALID,0.0832031,
2014-01-10, 07:04:04,VALID,917.46,VALID,0,VALID,97.0918,VALID,48.6708,VALID,19.1193,VALID,55,VALID,0,
2014-01-10, 07:05:04,VALID,917.46,VALID,0,VALID,97.1071,VALID,51.7866,VALID,19.1193,VALID,55,VALID,0.102734,
2014-01-10, 07:06:04,VALID,917.482,VALID,0,VALID,97.1071,VALID,51.5718,VALID,19.1388,VALID,55,VALID,0.270312,
2014-01-10, 07:07:04,VALID,917.502,VALID,0,VALID,97.0918,VALID,50.0676,VALID,19.1388,VALID,55,VALID,0.151172,
2014-01-10, 07:08:04,VALID,917.521,VALID,0,VALID,97.0842,VALID,48.456,VALID,19.1778,VALID,55,VALID,0,
2014-01-10, 07:09:04,VALID,917.577,VALID,0,VALID,97.0842,VALID,46.4146,VALID,19.2168,VALID,55,VALID,0.230078,
2014-01-10, 07:10:04,VALID,917.589,VALID,0,VALID,97.0994,VALID,44.3732,VALID,19.1958,VALID,55,VALID,0,
2014-01-10, 07:11:04,VALID,917.639,VALID,0,VALID,97.0918,VALID,40.2904,VALID,19.1778,VALID,55,VALID,0.411328,
2014-01-10, 07:12:04,VALID,917.657,VALID,0,VALID,97.069,VALID,39.8607,VALID,19.1587,65535,65535,
2014-01-10, 09:26:04,VALID,918.696,VALID,0,VALID,69.6247,VALID,608.117,VALID,24.9311,VALID,345,VALID,1.0418,
2014-01-10, 09:27:04,VALID,918.702,VALID,0,VALID,70.1126,VALID,524.313,VALID,24.8902,VALID,20,VALID,0.744531,
2014-01-10, 09:28:04,VALID,918.741,VALID,0,VALID,72.2319,VALID,511.957,VALID,24.9097,VALID,20,VALID,0.434766,
2014-01-10, 09:29:04,VALID,918.772,VALID,0,VALID,70.326,VALID,328.877,VALID,24.9859,VALID,9,VALID,1.10586,
2014-01-10, 09:30:04,VALID,918.804,VALID,0,VALID,71.561,VALID,346.82,VALID,24.9683,VALID,9,VALID,0.346875,
2014-01-10, 09:31:04,VALID,918.797,VALID,0,VALID,69.9601,VALID,495.089,VALID,25.0074,VALID,9,VALID,0.553125,
2014-01-10, 09:32:04,VALID,918.829,VALID,0,VALID,69.0834,VALID,446.633,VALID,25.0445,VALID,9,VALID,0.294531,
2014-01-10, 09:33:04,VALID,918.846,VALID,0,VALID,70.0439,VALID,354.233,VALID,25.1617,VALID,9,VALID,0.232422,
2014-01-10, 09:34:04,VALID,918.844,VALID,0,VALID,68.626,VALID,351.01,VALID,25.2808,VALID,9,VALID,0.328516,
2014-01-10, 09:35:04,VALID,918.837,VALID,0,VALID,69.6323,VALID,402.367,VALID,25.146,VALID,9,VALID,0.175781,
2014-01-10, 09:36:04,VALID,918.831,VALID,0,VALID,70.0973,VALID,359.498,VALID,25.1636,VALID,9,VALID,0.414063,
2014-01-10, 09:37:04,VALID,918.811,VALID,0,VALID,70.852,VALID,332.315,VALID,25.3413,VALID,28,VALID,1.1375,
2014-01-10, 09:38:04,VALID,918.797,VALID,0,VALID,70.1202,VALID,321.249,VALID,25.3784,VALID,8,VALID,1.67227,
2014-01-10, 09:39:04,VALID,918.802,VALID,0,VALID,70.4099,VALID,319.637,VALID,25.3198,VALID,351,VALID,1.3,
2014-01-10, 09:40:04,VALID,918.798,VALID,0,VALID,70.2803,VALID,323.828,VALID,25.3198,VALID,357,VALID,1.22422,
2014-01-10, 09:41:04,VALID,918.803,VALID,0,VALID,68.8242,VALID,340.481,VALID,25.1441,VALID,288,VALID,1.74375,
2014-01-10, 09:42:04,VALID,918.777,VALID,0,VALID,72.6283,VALID,322.001,VALID,24.8707,VALID,360,VALID,1.80977,
2014-01-10, 09:43:04,VALID,918.773,VALID,0,VALID,72.5825,VALID,291.058,VALID,24.773,VALID,17,VALID,0.571484,
2014-01-10, 09:44:04,VALID,918.779,VALID,0,VALID,72.6207,VALID,305.455,VALID,24.693,VALID,17,VALID,0.350391,
2014-01-10, 09:45:04,VALID,918.798,VALID,0,VALID,72.8265,VALID,325.009,VALID,24.6577,VALID,17,VALID,0.688672,
2014-01-10, 09:46:04,VALID,918.807,VALID,0,VALID,73.6041,VALID,340.481,VALID,24.693,VALID,17,VALID,0.435547,
2014-01-10, 09:47:04,VALID,918.773,VALID,0,VALID,71.2179,VALID,336.076,VALID,24.7926,VALID,17,VALID,0.548047,
2014-01-10, 09:48:04,VALID,918.793,VALID,0,VALID,73.7642,VALID,343.274,VALID,24.8102,VALID,22,VALID,0.846094,
2014-01-10, 09:49:04,VALID,918.783,VALID,0,VALID,71.9193,VALID,350.043,VALID,24.9683,VALID,21,VALID,0.623047,
2014-01-10, 09:50:04,VALID,918.768,VALID,0,VALID,72.4606,VALID,342.093,VALID,25.1831,VALID,21,VALID,0.124219,
2014-01-10, 09:51:04,VALID,918.758,VALID,0,VALID,72.3691,VALID,326.943,VALID,25.4351,VALID,349,VALID,0.539453,
2014-01-10, 09:52:04,VALID,918.76,VALID,0,VALID,72.857,VALID,316.737,VALID,25.5913,VALID,23,VALID,0.674609,
2014-01-10, 09:53:04,VALID,918.805,VALID,0,VALID,71.6449,VALID,335.754,VALID,25.7085,VALID,16,VALID,1.64805,
2014-01-10, 09:54:04,VALID,918.756,VALID,0,VALID,69.7314,VALID,421.169,VALID,25.7105,VALID,27,VALID,1.25937,
2014-01-10, 09:55:04,VALID,918.781,VALID,0,VALID,71.2027,VALID,459.418,VALID,25.7105,VALID,20,VALID,1.47734,
2014-01-10, 09:56:04,VALID,918.759,VALID,0,VALID,70.8596,VALID,363.151,VALID,25.689,VALID,21,VALID,1.66094,
2014-01-10, 09:57:04,VALID,918.727,VALID,0,VALID,72.3462,VALID,318.885,VALID,25.6694,VALID,24,VALID,1.27148,
2014-01-10, 09:58:04,VALID,918.713,VALID,0,VALID,71.8354,VALID,293.422,VALID,25.6109,VALID,24,VALID,1.10977,
2014-01-10, 09:59:04,VALID,918.74,VALID,0,VALID,71.4771,VALID,296.538,VALID,25.6304,VALID,14,VALID,0.441406,
2014-01-10, 10:00:04,VALID,918.737,VALID,0,VALID,71.5534,VALID,316.737,VALID,25.6909,VALID,28,VALID,1.20664,
2014-01-10, 10:01:04,VALID,918.727,VALID,0,VALID,71.157,VALID,299.868,VALID,25.5913,VALID,25,VALID,0.601172,
2014-01-10, 10:02:04,VALID,918.731,VALID,0,VALID,71.6525,VALID,320.175,VALID,25.4546,VALID,25,VALID,0.714844,
2014-01-10, 10:03:04,VALID,918.732,VALID,0,VALID,71.7973,VALID,344.456,VALID,25.2593,VALID,25,VALID,0.21875,
2014-01-10, 10:04:04,VALID,918.74,VALID,0,VALID,71.5839,VALID,520.338,VALID,25.2593,VALID,322,VALID,0.583984,
2014-01-10, 10:05:04,VALID,918.713,VALID,0,VALID,72.3462,VALID,520.338,VALID,25.4156,VALID,322,VALID,0.457031,
2014-01-10, 10:06:04,VALID,918.73,VALID,0,VALID,72.0184,VALID,357.457,VALID,25.6499,VALID,352,VALID,1.20508,
2014-01-10, 10:07:04,VALID,918.732,VALID,0,VALID,69.03,VALID,643.358,VALID,25.6694,VALID,360,VALID,0.741016,
2014-01-10, 10:08:04,VALID,918.72,VALID,0,VALID,71.3018,VALID,423.963,VALID,25.4937,VALID,18,VALID,1.59102,
2014-01-10, 10:09:04,VALID,918.74,VALID,0,VALID,73.4669,VALID,427.079,VALID,25.3374,VALID,12,VALID,0.557422,
2014-01-10, 10:10:04,VALID,918.739,VALID,0,VALID,72.7503,VALID,393.342,VALID,25.355,VALID,11,VALID,1.91445,
2014-01-10, 10:11:04,VALID,918.744,VALID,0,VALID,69.9601,VALID,521.949,VALID,25.2808,VALID,10,VALID,2.07188,
2014-01-10, 10:12:04,VALID,918.75,VALID,0,VALID,71.5229,VALID,647.548,VALID,25.0836,VALID,360,VALID,1.39492,
2014-01-10, 10:13:04,VALID,918.779,VALID,0,VALID,69.7543,VALID,601.026,VALID,25.0464,VALID,360,VALID,1.25781,
2014-01-10, 10:14:04,VALID,918.784,VALID,0,VALID,71.1798,VALID,664.094,VALID,24.9274,VALID,360,VALID,0.883203,
2014-01-10, 10:15:04,VALID,918.753,VALID,0,VALID,71.6677,VALID,646.688,VALID,24.9078,VALID,360,VALID,0.321094,
2014-01-10, 10:16:04,VALID,918.744,VALID,0,VALID,74.214,VALID,687.838,VALID,24.9292,VALID,360,VALID,0.657422,
2014-01-10, 10:17:04,VALID,918.738,VALID,0,VALID,72.4987,VALID,664.846,VALID,24.9469,VALID,318,VALID,1.4707,
2014-01-10, 10:18:04,VALID,918.762,VALID,0,VALID,71.3933,VALID,638.308,VALID,25.0055,VALID,16,VALID,1.15664,
2014-01-10, 10:19:04,VALID,918.764,VALID,0,VALID,71.9422,VALID,724.905,VALID,25.0426,VALID,1,VALID,0.679688,
2014-01-10, 10:20:04,VALID,918.765,VALID,0,VALID,71.8659,VALID,363.473,VALID,25.064,VALID,43,VALID,0.901563,
2014-01-10, 10:21:04,VALID,918.791,VALID,0,VALID,74.0844,VALID,478.221,VALID,25.064,VALID,41,VALID,0.920703,
2014-01-10, 10:22:04,VALID,918.815,VALID,0,VALID,74.1911,VALID,698.045,VALID,25.2593,VALID,34,VALID,0.165625,
2014-01-10, 10:23:04,VALID,918.801,VALID,0,VALID,72.979,VALID,374.325,VALID,25.357,VALID,326,VALID,0.989844,
2014-01-10, 10:24:04,VALID,918.794,VALID,0,VALID,72.8951,VALID,361.969,VALID,25.2398,VALID,15,VALID,1.63906,
2014-01-10, 10:25:04,VALID,918.831,VALID,0,VALID,73.9395,VALID,341.663,VALID,25.2007,VALID,353,VALID,0.529688,
2014-01-10, 10:26:04,VALID,918.835,VALID,0,VALID,72.7731,VALID,363.688,VALID,25.2984,VALID,353,VALID,0.36875,
2014-01-10, 10:27:04,VALID,918.826,VALID,0,VALID,71.561,VALID,383.135,VALID,25.2398,VALID,9,VALID,1.50508,
2014-01-10, 10:28:04,VALID,918.849,VALID,0,VALID,73.2305,VALID,430.087,VALID,25.0445,VALID,4,VALID,1.38008,
2014-01-10, 10:29:04,VALID,918.836,VALID,0,VALID,73.2763,VALID,659.474,VALID,25.025,VALID,341,VALID,0.774219,
2014-01-10, 10:30:04,VALID,918.806,VALID,0,VALID,73.6879,VALID,447.17,VALID,25.0464,VALID,19,VALID,1.98555,
2014-01-10, 10:31:04,VALID,918.882,VALID,0,VALID,72.857,VALID,360.143,VALID,25.025,VALID,359,VALID,0.273047,
2014-01-10, 10:32:04,VALID,918.885,VALID,0,VALID,75.6929,VALID,309.108,VALID,25.1031,VALID,27,VALID,0.871484,
2014-01-10, 10:33:04,VALID,918.901,VALID,0,VALID,74.3131,VALID,280.421,VALID,25.1226,VALID,83,VALID,1.12344,
2014-01-10, 10:34:04,VALID,918.9,VALID,0,VALID,73.9243,VALID,269.355,VALID,25.0055,VALID,83,VALID,0.365625,
2014-01-10, 10:35:04,VALID,918.934,VALID,0,VALID,73.4745,VALID,262.156,VALID,24.9664,VALID,55,VALID,0.4875,
2014-01-10, 10:36:04,VALID,918.888,VALID,0,VALID,73.9624,VALID,278.38,VALID,24.9274,VALID,58,VALID,1.38633,
2014-01-10, 10:37:04,VALID,918.885,VALID,0,VALID,76.3942,VALID,278.38,VALID,24.9274,VALID,299,VALID,0.951172,
2014-01-10, 10:38:04,VALID,918.883,VALID,0,VALID,75.0449,VALID,287.513,VALID,24.7711,VALID,298,VALID,0.658594,
2014-01-10, 10:39:04,VALID,918.889,VALID,0,VALID,76.3485,VALID,295.571,VALID,24.6716,VALID,298,VALID,0.731641,
2014-01-10, 10:40:04,VALID,918.903,VALID,0,VALID,75.8606,VALID,316.844,VALID,24.7711,VALID,305,VALID,0.396875,
2014-01-10, 10:41:04,VALID,918.894,VALID,0,VALID,76.1732,VALID,320.067,VALID,24.8102,VALID,55,VALID,0.213672,
2014-01-10, 10:42:04,VALID,918.929,VALID,0,VALID,74.9611,VALID,324.687,VALID,24.8102,VALID,321,VALID,1.00742,
2014-01-10, 10:43:04,VALID,918.935,VALID,0,VALID,75.5252,VALID,318.993,VALID,24.773,VALID,83,VALID,0.366016,
2014-01-10, 10:44:04,VALID,918.94,VALID,0,VALID,75.731,VALID,309.645,VALID,24.8297,VALID,45,VALID,0.303516,
2014-01-10, 10:45:04,VALID,918.964,VALID,0,VALID,73.6727,VALID,303.091,VALID,24.7535,VALID,305,VALID,1.18047,
2014-01-10, 10:46:04,VALID,918.96,VALID,0,VALID,74.435,VALID,299.761,VALID,24.6149,VALID,301,VALID,0.147656,
2014-01-10, 10:47:04,VALID,918.977,VALID,0,VALID,75.6853,VALID,310.397,VALID,24.5368,VALID,298,VALID,1.28633,
2014-01-10, 10:48:04,VALID,919.015,VALID,0,VALID,76.7449,VALID,306.53,VALID,24.3611,INVALID,360,VALID,0,
2014-01-10, 10:49:04,VALID,918.962,VALID,0,VALID,74.7933,VALID,302.554,VALID,24.3806,INVALID,360,VALID,0,
2014-01-10, 10:50:04,VALID,918.967,VALID,0,VALID,75.1974,VALID,294.926,VALID,24.4411,VALID,264,VALID,0.417969,
2014-01-10, 10:51:04,VALID,918.968,VALID,0,VALID,75.8987,VALID,283,VALID,24.5954,VALID,292,VALID,0.679688,
2014-01-10, 10:52:04,VALID,918.974,VALID,0,VALID,76.2189,VALID,273.653,VALID,24.7321,VALID,304,VALID,0.606641,
2014-01-10, 10:53:04,VALID,918.95,VALID,0,VALID,74.4655,VALID,270.429,VALID,24.8902,VALID,297,VALID,0.545313,
2014-01-10, 10:54:04,VALID,918.952,VALID,0,VALID,74.5113,VALID,271.719,VALID,24.7907,VALID,282,VALID,0.618359,
2014-01-10, 10:55:04,VALID,918.915,VALID,0,VALID,75.0602,VALID,286.653,VALID,24.6131,VALID,279,VALID,0.49375,
2014-01-10, 10:56:04,VALID,918.887,VALID,0,VALID,77.5606,VALID,302.232,VALID,24.5387,VALID,254,VALID,0.424609,
2014-01-10, 10:57:04,VALID,918.916,VALID,0,VALID,75.9445,VALID,318.241,VALID,24.5973,VALID,255,VALID,0.656641,
2014-01-10, 10:58:04,VALID,918.842,VALID,0,VALID,69.8534,VALID,321.464,VALID,24.3044,VALID,262,VALID,2.09648,
2014-01-10, 10:59:04,VALID,918.923,VALID,0,VALID,73.2687,VALID,316.951,VALID,24.1482,VALID,245,VALID,2.84375,
2014-01-10, 11:00:04,VALID,918.918,VALID,0,VALID,73.2534,VALID,306.637,VALID,23.9353,VALID,258,VALID,3.0082,
2014-01-10, 11:01:04,VALID,918.92,VALID,0,VALID,73.3982,VALID,293.422,VALID,23.6992,VALID,249,VALID,4.27578,
2014-01-10, 11:02:04,VALID,918.901,VALID,0,VALID,75.1898,VALID,278.595,VALID,23.5235,VALID,247,VALID,1.96641,
2014-01-10, 11:03:04,VALID,918.927,VALID,0,VALID,77.6521,VALID,283.86,VALID,23.465,VALID,253,VALID,1.62227,
2014-01-10, 11:04:04,VALID,918.893,VALID,0,VALID,78.2162,VALID,293.637,VALID,23.4454,VALID,289,VALID,1.24102,
2014-01-10, 11:05:04,VALID,918.899,VALID,0,VALID,78.5898,VALID,310.72,VALID,23.4082,VALID,248,VALID,1.38477,
2014-01-10, 11:06:04,VALID,918.842,VALID,0,VALID,76.8288,VALID,330.596,VALID,23.4064,VALID,292,VALID,1.34375,
2014-01-10, 11:07:04,VALID,918.874,VALID,0,VALID,78.2849,VALID,352.944,VALID,23.4259,VALID,288,VALID,0.8875,
2014-01-10, 11:08:04,VALID,918.892,VALID,0,VALID,77.6674,VALID,384.21,VALID,23.4667,VALID,249,VALID,1.64219,
2014-01-10, 11:09:04,VALID,918.863,VALID,0,VALID,75.1211,VALID,423.963,VALID,23.465,VALID,304,VALID,0.666016,
2014-01-10, 11:10:04,VALID,918.885,VALID,0,VALID,76.4781,VALID,433.847,VALID,23.6034,VALID,285,VALID,0.932031,
2014-01-10, 11:11:04,VALID,918.854,VALID,0,VALID,71.9041,VALID,700.194,VALID,23.6779,VALID,251,VALID,2.77813,
2014-01-10, 11:12:04,VALID,918.853,VALID,0,VALID,72.4529,VALID,513.354,VALID,23.756,VALID,257,VALID,1.36172,
2014-01-10, 11:13:04,VALID,918.845,VALID,0,VALID,72.4682,VALID,471.129,VALID,23.7968,VALID,241,VALID,1.81055,
2014-01-10, 11:14:04,VALID,918.785,VALID,0,VALID,73.4669,VALID,444.699,VALID,23.8358,VALID,251,VALID,1.07813,
2014-01-10, 11:15:04,VALID,918.788,VALID,0,VALID,72.7045,VALID,433.095,VALID,23.9139,VALID,261,VALID,0.6875,
2014-01-10, 11:16:04,VALID,918.815,VALID,0,VALID,71.8278,VALID,470.27,VALID,24.0506,VALID,251,VALID,1.15977,
2014-01-10, 11:17:04,VALID,918.815,VALID,0,VALID,70.8673,VALID,500.676,VALID,24.1873,VALID,249,VALID,1.33633,
2014-01-10, 11:18:04,VALID,918.786,VALID,0,VALID,71.9803,VALID,451.79,VALID,24.0701,VALID,252,VALID,1.62148,
2014-01-10, 11:19:04,VALID,918.809,VALID,0,VALID,74.7933,VALID,431.376,VALID,24.0701,VALID,277,VALID,0.732031,
2014-01-10, 11:20:04,VALID,918.798,VALID,0,VALID,74.1987,VALID,420.525,VALID,24.2068,VALID,277,VALID,0,
2014-01-10, 11:21:04,VALID,918.751,VALID,0,VALID,74.9839,VALID,464.898,VALID,24.4411,VALID,357,VALID,1.47617,
2014-01-10, 11:22:04,VALID,918.771,VALID,0,VALID,71.1951,VALID,404.731,VALID,24.5582,VALID,255,VALID,1.62773,
2014-01-10, 11:23:04,VALID,918.74,VALID,0,VALID,72.0565,VALID,389.259,VALID,24.5778,VALID,294,VALID,0.676562,
2014-01-10, 11:24:04,VALID,918.708,VALID,0,VALID,70.4099,VALID,380.127,VALID,24.773,VALID,266,VALID,0.441797,
2014-01-10, 11:25:04,VALID,918.693,VALID,0,VALID,70.4404,VALID,375.722,VALID,24.9078,VALID,266,VALID,0.626953,
2014-01-10, 11:26:04,VALID,918.677,VALID,0,VALID,71.1417,VALID,379.804,VALID,24.8902,VALID,273,VALID,0.449609,
2014-01-10, 11:27:04,VALID,918.669,VALID,0,VALID,71.8202,VALID,392.59,VALID,24.9292,VALID,271,VALID,0.569922,
2014-01-10, 11:28:04,VALID,918.653,VALID,0,VALID,72.0794,VALID,406.557,VALID,25.0288,VALID,274,VALID,0.232031,
2014-01-10, 11:29:04,VALID,918.606,VALID,0,VALID,71.9041,VALID,415.367,VALID,25.1617,VALID,274,VALID,0.166406,
2014-01-10, 11:30:04,VALID,918.642,VALID,0,VALID,71.3475,VALID,420.417,VALID,25.2417,VALID,266,VALID,0.515234,
2014-01-10, 11:31:04,VALID,918.647,VALID,0,VALID,72.5292,VALID,424.715,VALID,25.3003,VALID,266,VALID,0.251953,
2014-01-10, 11:32:04,VALID,918.628,VALID,0,VALID,73.1391,VALID,423.426,VALID,25.357,VALID,354,VALID,0.568359,
2014-01-10, 11:33:04,VALID,918.622,VALID,0,VALID,74.0081,VALID,420.525,VALID,25.5132,VALID,1,VALID,1.16328,
2014-01-10, 11:34:04,VALID,918.645,VALID,0,VALID,70.5166,VALID,412.144,VALID,25.4351,VALID,16,VALID,1.08594,
2014-01-10, 11:35:04,VALID,918.621,VALID,0,VALID,72.0641,VALID,391.516,VALID,25.2398,VALID,19,VALID,0.546484,
2014-01-10, 11:36:04,VALID,918.635,VALID,0,VALID,72.4529,VALID,371.639,VALID,25.1636,VALID,276,VALID,1.04531,
2014-01-10, 11:37:04,VALID,918.649,VALID,0,VALID,73.4974,VALID,348.324,VALID,25.0445,VALID,22,VALID,1.01094,
2014-01-10, 11:38:04,VALID,918.588,VALID,0,VALID,73.8252,VALID,328.34,VALID,25.0074,VALID,60,VALID,0.482422,
2014-01-10, 11:39:04,VALID,918.623,VALID,0,VALID,74.5189,VALID,320.819,VALID,25.0074,VALID,60,VALID,0.296484,
2014-01-10, 11:40:04,VALID,918.584,VALID,0,VALID,72.4911,VALID,321.679,VALID,25.0836,VALID,355,VALID,1.2875,
2014-01-10, 11:41:04,VALID,918.603,VALID,0,VALID,71.7516,VALID,329.522,VALID,25.0074,VALID,315,VALID,1.3207,
2014-01-10, 11:42:04,VALID,918.607,VALID,0,VALID,72.5444,VALID,320.819,VALID,24.7535,VALID,269,VALID,0.740234,
2014-01-10, 11:43:04,VALID,918.603,VALID,0,VALID,74.153,VALID,301.91,VALID,24.6754,VALID,245,VALID,0.516406,
2014-01-10, 11:44:04,VALID,918.649,VALID,0,VALID,76.4095,VALID,276.339,VALID,24.734,VALID,350,VALID,1.14023,
2014-01-10, 11:45:04,VALID,918.616,VALID,0,VALID,75.1135,VALID,262.371,VALID,24.693,VALID,17,VALID,1.35,
2014-01-10, 11:46:04,VALID,918.606,VALID,0,VALID,76.7754,VALID,246.792,VALID,24.6559,VALID,12,VALID,1.28359,
2014-01-10, 11:47:04,VALID,918.624,VALID,0,VALID,76.3714,VALID,221.221,VALID,24.6345,VALID,19,VALID,1.24141,
2014-01-10, 11:48:04,VALID,918.618,VALID,0,VALID,75.8377,VALID,210.477,VALID,24.5973,VALID,19,VALID,1.175,
2014-01-10, 11:49:04,VALID,918.63,VALID,0,VALID,75.388,VALID,203.923,VALID,24.4997,VALID,26,VALID,0.816406,
2014-01-10, 11:50:04,VALID,918.643,VALID,0,VALID,76.5925,VALID,196.617,VALID,24.3825,VALID,22,VALID,1.22148,
2014-01-10, 11:51:04,VALID,918.647,VALID,0,VALID,77.5606,VALID,193.394,VALID,24.244,VALID,22,VALID,0.877734,
2014-01-10, 11:52:04,VALID,918.662,VALID,0,VALID,76.6992,VALID,190.815,VALID,24.1854,VALID,22,VALID,0.23125,
2014-01-10, 11:53:04,VALID,918.647,VALID,0,VALID,77.5759,VALID,188.344,VALID,24.2068,VALID,22,VALID,0.253516,
2014-01-10, 11:54:04,VALID,918.649,VALID,0,VALID,77.675,VALID,187.485,VALID,24.1873,VALID,313,VALID,1.1582,
2014-01-10, 11:55:04,VALID,918.641,VALID,0,VALID,76.6916,VALID,192.105,VALID,24.2068,VALID,353,VALID,0.392578,
2014-01-10, 11:56:04,VALID,918.645,VALID,0,VALID,76.562,VALID,204.353,VALID,24.1873,VALID,350,VALID,0.496875,
2014-01-10, 11:57:04,VALID,918.639,VALID,0,VALID,77.7665,VALID,221.866,VALID,24.1873,VALID,345,VALID,0.140234,
2014-01-10, 11:58:04,VALID,918.625,VALID,0,VALID,76.4095,VALID,227.56,VALID,24.2049,VALID,345,VALID,0.176953,
2014-01-10, 11:59:04,VALID,918.611,VALID,0,VALID,77.027,VALID,226.056,VALID,24.2068,VALID,330,VALID,0.397656,
2014-01-10, 12:00:04,VALID,918.639,VALID,0,VALID,76.1808,VALID,222.403,VALID,24.2263,VALID,332,VALID,0.494922,
2014-01-10, 12:01:04,VALID,918.652,VALID,0,VALID,76.7754,VALID,220.899,VALID,24.2068,VALID,326,VALID,0.728125,
2014-01-10, 12:02:04,VALID,918.656,VALID,0,VALID,77.797,VALID,224.767,VALID,24.1873,VALID,328,VALID,0.439063,
2014-01-10, 12:03:04,VALID,918.617,VALID,0,VALID,77.8732,VALID,224.015,VALID,24.2849,VALID,340,VALID,0.403125,
2014-01-10, 12:04:04,VALID,918.608,VALID,0,VALID,75.1288,VALID,215.42,VALID,24.363,VALID,306,VALID,0.632813,
2014-01-10, 12:05:04,VALID,918.603,VALID,0,VALID,75.7158,VALID,208.758,VALID,24.3239,VALID,16,VALID,0.483984,
2014-01-10, 12:06:04,VALID,918.629,VALID,0,VALID,76.3256,VALID,205.213,VALID,24.244,VALID,298,VALID,0.933594,
2014-01-10, 12:07:04,VALID,918.619,VALID,0,VALID,76.8669,VALID,207.147,VALID,24.0488,VALID,270,VALID,1.31367,
2014-01-10, 12:08:04,VALID,918.595,VALID,0,VALID,78.0943,VALID,215.42,VALID,23.9353,VALID,231,VALID,0.690234,
2014-01-10, 12:09:04,VALID,918.518,VALID,0,VALID,75.0373,VALID,236.371,VALID,23.8358,VALID,241,VALID,1.04023,
2014-01-10, 12:10:04,VALID,918.484,VALID,0,VALID,77.9875,VALID,270.752,VALID,23.8358,VALID,7,VALID,0.832031,
2014-01-10, 12:11:04,VALID,918.486,VALID,0,VALID,79.4665,VALID,319.852,VALID,23.9139,VALID,10,VALID,0.984766,
2014-01-10, 12:12:04,VALID,918.432,VALID,0,VALID,79.5046,VALID,349.506,VALID,23.9725,VALID,2,VALID,0.244922,
2014-01-10, 12:13:04,VALID,918.441,VALID,0,VALID,79.4589,VALID,374.54,VALID,24.0878,VALID,15,VALID,0.891797,
2014-01-10, 12:14:04,VALID,918.428,VALID,0,VALID,79.6571,VALID,405.053,VALID,24.283,VALID,15,VALID,0.578906,
2014-01-10, 12:15:04,VALID,918.418,VALID,0,VALID,77.1795,VALID,403.227,VALID,24.4216,VALID,328,VALID,0.617188,
2014-01-10, 12:16:04,VALID,918.355,VALID,0,VALID,73.2382,VALID,382.491,VALID,24.4411,VALID,7,VALID,2.42578,
2014-01-10, 12:17:04,VALID,918.366,VALID,0,VALID,72.5139,VALID,363.796,VALID,24.3221,VALID,3,VALID,0.934375,
2014-01-10, 12:18:04,VALID,918.346,VALID,0,VALID,73.0476,VALID,389.259,VALID,24.4216,VALID,24,VALID,0.878516,
2014-01-10, 12:19:04,VALID,918.29,VALID,0,VALID,72.5216,VALID,477.791,VALID,24.5759,VALID,24,VALID,0.394922,
2014-01-10, 12:20:04,VALID,918.255,VALID,0,VALID,74.5875,VALID,524.42,VALID,24.7711,VALID,11,VALID,1.39297,
2014-01-10, 12:21:04,VALID,918.208,VALID,0,VALID,74.3283,VALID,467.799,VALID,24.8707,VALID,40,VALID,1.37734,
2014-01-10, 12:22:04,VALID,918.205,VALID,0,VALID,76.966,VALID,430.946,VALID,24.8902,VALID,13,VALID,1.02461,
2014-01-10, 12:23:04,VALID,918.18,VALID,0,VALID,75.7386,VALID,402.582,VALID,24.9878,VALID,42,VALID,1.60078,
2014-01-10, 12:24:04,VALID,918.177,VALID,0,VALID,76.0664,VALID,381.201,VALID,25.0659,VALID,28,VALID,0.847656,
2014-01-10, 12:25:04,VALID,918.168,VALID,0,VALID,73.787,VALID,349.184,VALID,25.1441,VALID,26,VALID,0.490234,
2014-01-10, 12:26:04,VALID,918.15,VALID,0,VALID,73.3068,VALID,291.166,VALID,25.1441,VALID,19,VALID,0.282422,
2014-01-10, 12:27:04,VALID,918.133,VALID,0,VALID,71.8736,VALID,251.09,VALID,25.0074,VALID,342,VALID,1.35352,
2014-01-10, 12:28:04,VALID,918.122,VALID,0,VALID,73.6346,VALID,238.304,VALID,24.8121,VALID,294,VALID,0.653906,
2014-01-10, 12:29:04,VALID,918.117,VALID,0,VALID,75.3041,VALID,252.702,VALID,24.6735,VALID,351,VALID,1.04023,
2014-01-10, 12:30:04,VALID,918.074,VALID,0,VALID,74.4503,VALID,279.454,VALID,24.6559,VALID,6,VALID,0.352734,
2014-01-10, 12:31:04,VALID,918.064,VALID,0,VALID,75.1288,VALID,309.753,VALID,24.6363,VALID,6,VALID,0.0265625,
2014-01-10, 12:32:04,VALID,918.058,VALID,0,VALID,75.1288,VALID,345.423,VALID,24.6559,VALID,5,VALID,0.578516,
2014-01-10, 12:33:04,VALID,918.015,VALID,0,VALID,74.9992,VALID,376.151,VALID,24.7516,VALID,10,VALID,0.474219,
2014-01-10, 12:34:04,VALID,917.964,VALID,0,VALID,74.496,VALID,393.557,VALID,24.9078,VALID,355,VALID,0.397266,
2014-01-10, 12:35:04,VALID,917.932,VALID,0,VALID,74.8315,VALID,413.326,VALID,25.1441,VALID,8,VALID,0.929688,
2014-01-10, 12:36:04,VALID,917.953,VALID,0,VALID,76.0131,VALID,448.782,VALID,25.1636,VALID,342,VALID,0.70625,
2014-01-10, 12:37:04,VALID,917.878,VALID,0,VALID,73.5355,VALID,494.122,VALID,25.2222,VALID,353,VALID,0.725,
2014-01-10, 12:38:04,VALID,917.885,VALID,0,VALID,72.2929,VALID,508.304,VALID,25.3198,VALID,19,VALID,0.49375,
2014-01-10, 12:39:04,VALID,917.833,VALID,0,VALID,71.9955,VALID,474.353,VALID,25.396,VALID,18,VALID,0.0183594,
2014-01-10, 12:40:04,VALID,917.836,VALID,0,VALID,71.5076,VALID,482.411,VALID,25.6323,VALID,339,VALID,0.546875,
2014-01-10, 12:41:04,VALID,917.841,VALID,0,VALID,71.3552,VALID,991.789,VALID,25.6499,VALID,328,VALID,0.507813,
2014-01-10, 12:42:04,VALID,917.8,VALID,0,VALID,74.1453,VALID,1072.69,VALID,25.7495,VALID,352,VALID,0.873828,
2014-01-10, 12:43:04,VALID,917.779,VALID,0,VALID,73.2305,VALID,1166.49,VALID,25.9253,VALID,357,VALID,0.380469,
2014-01-10, 12:44:04,VALID,917.763,VALID,0,VALID,69.8686,VALID,1156.71,VALID,25.9839,VALID,275,VALID,1.18555,
2014-01-10, 12:45:04,VALID,917.741,VALID,0,VALID,70.509,VALID,1099.66,VALID,25.8277,VALID,241,VALID,0.425781,
2014-01-10, 12:46:04,VALID,917.678,VALID,0,VALID,71.6906,VALID,1068.82,VALID,25.9449,VALID,297,VALID,0.595703,
2014-01-10, 12:47:04,VALID,917.67,VALID,0,VALID,70.4327,VALID,968.367,VALID,26.1402,VALID,259,VALID,0.948047,
2014-01-10, 12:48:04,VALID,917.668,VALID,0,VALID,70.1126,VALID,1055.72,VALID,26.1968,VALID,258,VALID,0.714453,
2014-01-10, 12:49:04,VALID,917.647,VALID,0,VALID,66.3695,VALID,1071.19,VALID,26.1578,VALID,220,VALID,1.47227,